EWG2031 EDDW-EDDS

Flight info

Callsign EWG2031
Flight time 0h 48m
Altitude 35000
Route NIE6Z NIE Z88 SAS DCT BERXO DCT SILWE DCT OSBIT P605 TOSTU T726 LBU
Aircraft A320/M-SDE3FGHIRWY/LB1

Departure

Time 2026-05-04 07:08
Airport Bremen Airport (EDDW)

Arrival

Time 2026-05-04 07:57
Airport Stuttgart Airport (EDDS)
Time Latitude Longitude Altitude Speed Heading
2026-05-04 06:48 53.05144 8.78601 19 ft 0 kts 49°
2026-05-04 07:01 53.05126 8.78432 20 ft 3 kts 128°
2026-05-04 07:01 53.05129 8.78428 20 ft 0 kts 129°
2026-05-04 07:03 53.05126 8.78432 20 ft 1 kts 129°
2026-05-04 07:04 53.05104 8.78470 20 ft 8 kts 136°
2026-05-04 07:04 53.05051 8.78548 19 ft 12 kts 139°
2026-05-04 07:04 53.04996 8.78696 18 ft 17 kts 116°
2026-05-04 07:04 53.04919 8.78825 19 ft 15 kts 139°
2026-05-04 07:05 53.04857 8.78947 20 ft 13 kts 102°
2026-05-04 07:05 53.04859 8.79106 21 ft 15 kts 88°
2026-05-04 07:05 53.04864 8.79300 24 ft 19 kts 88°
2026-05-04 07:05 53.04869 8.79541 25 ft 22 kts 88°
2026-05-04 07:06 53.04881 8.80049 23 ft 24 kts 88°
2026-05-04 07:06 53.04886 8.80308 21 ft 16 kts 89°
2026-05-04 07:06 53.04835 8.80454 20 ft 15 kts 160°
2026-05-04 07:07 53.04750 8.80461 24 ft 10 kts 191°
2026-05-04 07:08 53.03118 8.74513 1913 ft 168 kts 200°
2026-05-04 07:09 53.01949 8.73865 2309 ft 188 kts 202°
2026-05-04 07:09 53.00645 8.73081 2642 ft 210 kts 202°
2026-05-04 07:09 52.99131 8.72692 3027 ft 238 kts 173°
2026-05-04 07:09 52.97577 8.73978 3540 ft 266 kts 139°
2026-05-04 07:10 52.96255 8.76195 4430 ft 273 kts 134°
2026-05-04 07:10 52.94974 8.78562 5369 ft 278 kts 133°
2026-05-04 07:12 52.85845 8.95459 10651 ft 333 kts 136°
2026-05-04 07:12 52.84221 8.98373 10911 ft 357 kts 136°
2026-05-04 07:12 52.82494 9.01471 11263 ft 374 kts 136°
2026-05-04 07:12 52.80136 9.05728 12176 ft 382 kts 136°
2026-05-04 07:13 52.78922 9.07925 12695 ft 384 kts 136°
2026-05-04 07:13 52.77110 9.11204 13453 ft 388 kts 136°
2026-05-04 07:13 52.75281 9.14505 14144 ft 392 kts 136°
2026-05-04 07:14 52.67769 9.27937 16715 ft 405 kts 137°
2026-05-04 07:14 52.65855 9.31354 17344 ft 408 kts 138°
2026-05-04 07:15 52.63924 9.34798 17958 ft 411 kts 138°
2026-05-04 07:15 52.61910 9.38140 18522 ft 410 kts 144°
2026-05-04 07:15 52.59728 9.41180 19044 ft 412 kts 145°
2026-05-04 07:15 52.57523 9.44224 19549 ft 415 kts 145°
2026-05-04 07:16 52.55298 9.47278 20054 ft 418 kts 146°
2026-05-04 07:16 52.53083 9.50305 20534 ft 421 kts 146°
2026-05-04 07:16 52.50818 9.53398 21016 ft 425 kts 146°
2026-05-04 07:16 52.48536 9.56517 21515 ft 428 kts 146°
2026-05-04 07:17 52.46240 9.59655 21987 ft 431 kts 146°
2026-05-04 07:17 52.43925 9.62814 22445 ft 434 kts 146°
2026-05-04 07:17 52.41593 9.65991 22896 ft 438 kts 146°
2026-05-04 07:17 52.39244 9.69188 23330 ft 441 kts 146°
2026-05-04 07:18 52.36879 9.72409 23729 ft 444 kts 146°
2026-05-04 07:18 52.34503 9.75641 24093 ft 446 kts 146°
2026-05-04 07:18 52.32104 9.78898 24459 ft 449 kts 146°
2026-05-04 07:18 52.29684 9.82137 24825 ft 450 kts 148°
2026-05-04 07:19 52.27061 9.84872 25177 ft 445 kts 158°
2026-05-04 07:19 52.24231 9.86836 25530 ft 440 kts 167°
2026-05-04 07:19 52.21276 9.88012 25870 ft 436 kts 176°
2026-05-04 07:19 52.18266 9.88413 26204 ft 432 kts 184°
2026-05-04 07:20 52.15252 9.88401 26542 ft 434 kts 185°
2026-05-04 07:20 52.12225 9.88392 26874 ft 436 kts 185°
2026-05-04 07:20 52.09186 9.88382 27200 ft 438 kts 185°
2026-05-04 07:20 52.06124 9.88370 27514 ft 440 kts 185°
2026-05-04 07:22 51.84653 9.88344 30318 ft 438 kts 185°
2026-05-04 07:22 51.81601 9.88339 30724 ft 437 kts 185°
2026-05-04 07:23 51.78573 9.88334 31141 ft 434 kts 185°
2026-05-04 07:23 51.75558 9.88327 31556 ft 432 kts 185°
2026-05-04 07:23 51.72550 9.88322 31977 ft 430 kts 185°
2026-05-04 07:23 51.69567 9.88318 32401 ft 428 kts 184°
2026-05-04 07:24 51.66593 9.88314 32823 ft 426 kts 184°
2026-05-04 07:24 51.63636 9.88307 33222 ft 424 kts 184°
2026-05-04 07:24 51.60686 9.88300 33641 ft 423 kts 184°
2026-05-04 07:24 51.57751 9.88294 34049 ft 421 kts 184°
2026-05-04 07:25 51.54830 9.88283 34375 ft 420 kts 184°
2026-05-04 07:26 51.34239 9.88232 35008 ft 425 kts 184°
2026-05-04 07:27 51.28323 9.88219 35006 ft 425 kts 184°
2026-05-04 07:27 51.22402 9.88211 35001 ft 426 kts 184°
2026-05-04 07:28 51.16489 9.87868 34994 ft 425 kts 187°
2026-05-04 07:28 51.10593 9.87258 34995 ft 425 kts 187°
2026-05-04 07:29 51.04692 9.86656 34992 ft 425 kts 187°
2026-05-04 07:29 50.98817 9.86131 34989 ft 426 kts 186°
2026-05-04 07:30 50.92892 9.85631 34987 ft 427 kts 187°
2026-05-04 07:30 50.86956 9.85120 34992 ft 427 kts 187°
2026-05-04 07:31 50.81017 9.84606 34991 ft 428 kts 187°
2026-05-04 07:33 50.57168 9.82556 35008 ft 430 kts 186°
2026-05-04 07:33 50.51197 9.82049 35015 ft 430 kts 187°
2026-05-04 07:34 50.45223 9.81541 35020 ft 430 kts 187°
2026-05-04 07:34 50.39257 9.81036 35023 ft 429 kts 187°
2026-05-04 07:35 50.33289 9.80523 35019 ft 429 kts 187°
2026-05-04 07:35 50.27365 9.80013 35020 ft 429 kts 187°
2026-05-04 07:36 50.21396 9.79514 35022 ft 429 kts 187°
2026-05-04 07:38 49.97492 9.78924 35019 ft 431 kts 181°
2026-05-04 07:38 49.91490 9.79315 35016 ft 431 kts 181°
2026-05-04 07:39 49.85489 9.79693 34918 ft 432 kts 181°
2026-05-04 07:39 49.82478 9.79888 34674 ft 433 kts 181°
2026-05-04 07:39 49.79464 9.80082 34437 ft 433 kts 181°
2026-05-04 07:40 49.76449 9.80276 34192 ft 434 kts 181°
2026-05-04 07:40 49.73465 9.80469 33936 ft 435 kts 181°
2026-05-04 07:40 49.70437 9.80665 33659 ft 435 kts 181°
2026-05-04 07:40 49.67410 9.80835 33216 ft 436 kts 182°
2026-05-04 07:41 49.64358 9.80977 32088 ft 442 kts 182°
2026-05-04 07:41 49.61269 9.81139 31047 ft 447 kts 179°
2026-05-04 07:41 49.58158 9.81803 29966 ft 454 kts 174°
2026-05-04 07:41 49.55023 9.82648 28608 ft 461 kts 173°
2026-05-04 07:42 49.51855 9.83519 27364 ft 465 kts 173°
2026-05-04 07:42 49.48653 9.84413 26095 ft 469 kts 173°
2026-05-04 07:42 49.45429 9.85318 24871 ft 472 kts 173°
2026-05-04 07:42 49.42189 9.86227 23688 ft 474 kts 172°
2026-05-04 07:43 49.38948 9.87126 22664 ft 470 kts 172°
2026-05-04 07:43 49.35755 9.88006 21860 ft 462 kts 172°
2026-05-04 07:43 49.32633 9.88867 20734 ft 448 kts 172°
2026-05-04 07:43 49.29602 9.89700 19335 ft 439 kts 172°
2026-05-04 07:44 49.26644 9.90511 18398 ft 422 kts 172°
2026-05-04 07:44 49.23813 9.91113 17524 ft 401 kts 180°
2026-05-04 07:44 49.21096 9.90728 16772 ft 389 kts 194°
2026-05-04 07:44 49.18582 9.89311 16042 ft 384 kts 209°
2026-05-04 07:45 49.16415 9.86989 15324 ft 379 kts 223°
2026-05-04 07:45 49.14718 9.83939 14642 ft 379 kts 236°
2026-05-04 07:45 49.13555 9.80334 13938 ft 379 kts 248°
2026-05-04 07:45 49.12650 9.76560 13221 ft 378 kts 249°
2026-05-04 07:46 49.11748 9.72812 12560 ft 374 kts 249°
2026-05-04 07:46 49.10851 9.69104 11898 ft 371 kts 249°
2026-05-04 07:46 49.09962 9.65443 11360 ft 361 kts 249°
2026-05-04 07:46 49.09129 9.62007 11169 ft 330 kts 249°
2026-05-04 07:47 49.08368 9.58865 11027 ft 304 kts 248°
2026-05-04 07:47 49.07659 9.55948 10762 ft 286 kts 249°
2026-05-04 07:47 49.06972 9.53148 10517 ft 280 kts 248°
2026-05-04 07:49 48.97802 9.39439 9429 ft 274 kts 209°
2026-05-04 07:49 48.96130 9.38047 9273 ft 274 kts 209°
2026-05-04 07:49 48.94451 9.36652 8869 ft 278 kts 208°
2026-05-04 07:50 48.92645 9.35651 8420 ft 279 kts 190°
2026-05-04 07:50 48.90704 9.35751 8013 ft 281 kts 168°
2026-05-04 07:50 48.88925 9.36929 7631 ft 282 kts 147°
2026-05-04 07:50 48.87381 9.38776 7206 ft 281 kts 143°
2026-05-04 07:51 48.85896 9.40603 6850 ft 269 kts 143°
2026-05-04 07:51 48.84468 9.42356 6479 ft 259 kts 143°
2026-05-04 07:51 48.83093 9.44039 6100 ft 248 kts 143°
2026-05-04 07:51 48.81777 9.45645 5739 ft 241 kts 143°
2026-05-04 07:52 48.80452 9.47257 5415 ft 245 kts 143°
2026-05-04 07:52 48.79120 9.48874 5160 ft 245 kts 143°
2026-05-04 07:52 48.77771 9.50408 4904 ft 239 kts 154°
2026-05-04 07:52 48.76179 9.50905 4663 ft 234 kts 189°
2026-05-04 07:53 48.74740 9.50001 4553 ft 222 kts 220°
2026-05-04 07:54 48.71463 9.35329 2708 ft 184 kts 252°
2026-05-04 07:55 48.71133 9.33569 2478 ft 168 kts 253°
2026-05-04 07:55 48.70819 9.31905 2244 ft 160 kts 253°
2026-05-04 07:55 48.70518 9.30326 2011 ft 153 kts 253°
2026-05-04 07:55 48.70242 9.28779 1821 ft 152 kts 252°
2026-05-04 07:56 48.69939 9.27251 1678 ft 151 kts 253°
2026-05-04 07:56 48.69654 9.25714 1484 ft 152 kts 251°
2026-05-04 07:56 48.69361 9.24187 1327 ft 151 kts 252°
2026-05-04 07:56 48.69090 9.22775 1289 ft 124 kts 254°
2026-05-04 07:57 48.68907 9.21767 1285 ft 75 kts 255°
2026-05-04 07:57 48.68822 9.21257 1285 ft 36 kts 261°
2026-05-04 07:57 48.68847 9.20917 1290 ft 27 kts 285°
2026-05-04 07:57 48.68871 9.20656 1288 ft 26 kts 258°
2026-05-04 07:58 48.68820 9.20388 1289 ft 27 kts 254°
2026-05-04 07:58 48.68767 9.20105 1287 ft 23 kts 254°
2026-05-04 07:58 48.68768 9.19999 1289 ft 14 kts 297°
2026-05-04 07:58 48.68832 9.19898 1288 ft 13 kts 327°
2026-05-04 07:59 48.68887 9.19820 1287 ft 11 kts 273°
2026-05-04 07:59 48.68866 9.19723 1286 ft 8 kts 231°
2026-05-04 07:59 48.68822 9.19724 1288 ft 6 kts 164°
2026-05-04 07:59 48.68805 9.19732 1289 ft 0 kts 163°